Bluefield, WV

4:02 AM EST on December 12, 2019 (GMT -0500)
Mercer County

Weather History for KBLF - July, 2019

Change the Weather History Date:

Wednesday, July 17, 2019

  Actual Average Record
Temperature  
Mean Temperature 72 °F 73 °F  
Max Temperature 77 °F 81 °F 91 °F (1952)
Min Temperature 67 °F 65 °F 50 °F (1945)
Degree Days  
Heating Degree Days 0 0  
Month to date heating degree days 0 0  
Since 1 June heating degree days 47 22  
Since 1 July heating degree days 0 0  
Cooling Degree Days 7 8  
Month to date cooling degree days 122 136  
Year to date cooling degree days 270 393  
Since 1 June cooling degree days 191 302  
Growing Degree Days 22 (Base 50)    
Moisture  
Dew Point 65 °F    
Average Humidity 77    
Maximum Humidity 90    
Minimum Humidity 64    
Precipitation  
Precipitation 0.11 in 0.14 in 1.53 in (1958)
Month to date precipitation 1.26 2.35  
Year to date precipitation 23.58 23.31  
Snow  
Snow 0.00 in - - ()
Month to date snowfall 0.0  
Since 1 June snowfall 0.0  
Since 1 July snowfall 0.0  
Snow Depth 0.00 in    
Sea Level Pressure  
Sea Level Pressure 30.06 in    
Wind  
Wind Speed 8 mph (WSW)    
Max Wind Speed 23 mph    
Max Gust Speed 31 mph    
Visibility 9 miles    
Events Rain    
T = Trace of Precipitation, MM = Missing Value Source: NWS Daily Summary

Daily Weather History Graph

Daily Weather History Graph

Search for Another Location

Airport or City:

Astronomy

Jul. 17, 2019 Rise Set
Actual Time 6:17 AM EDT 8:44 PM EDT
Civil Twilight 5:47 AM EDT 9:14 PM EDT
Nautical Twilight 5:10 AM EDT 9:51 PM EDT
Astronomical Twilight 4:29 AM EDT 10:32 PM EDT
Moon 9:32 PM EDT (7/17) 6:48 AM EDT (7/17)
Length of Visible Light 15h 26m
Length of Day
14h 26m
Waxing Gibbous, 99% of the Moon is Illuminated
Jul 17
Waxing Gibbous
Jul 24
Last Quarter
Jul 31
New
Aug 7
First Quarter
Aug 15
Full

Hourly Weather History & Observations

Time (EDT) Temp. Dew Point Humidity Pressure Visibility Wind Dir Wind Speed Gust Speed Precip Events Conditions
12:52 AM 72.0 °F 63.0 °F 73% 30.09 in 10.0 mi SW 4.6 mph - N/A   Clear
1:52 AM 71.1 °F 64.0 °F 78% 30.08 in 10.0 mi SW 3.5 mph - N/A   Clear
2:52 AM 71.1 °F 63.0 °F 75% 30.05 in 10.0 mi SW 5.8 mph - N/A   Clear
3:52 AM 70.0 °F 63.0 °F 78% 30.04 in 10.0 mi WSW 3.5 mph - N/A   Clear
4:52 AM 69.1 °F 63.0 °F 81% 30.04 in 10.0 mi SW 4.6 mph - N/A   Clear
5:52 AM 70.0 °F 64.0 °F 81% 30.04 in 10.0 mi SW 4.6 mph - N/A   Clear
6:52 AM 68.0 °F 63.0 °F 84% 30.04 in 10.0 mi Calm Calm - N/A   Clear
7:52 AM 72.0 °F 64.0 °F 76% 30.04 in 10.0 mi WSW 5.8 mph - N/A   Clear
8:52 AM 72.0 °F 64.0 °F 76% 30.06 in 10.0 mi WSW 6.9 mph - N/A   Clear
9:52 AM 77.0 °F 64.0 °F 64% 30.04 in 10.0 mi West 12.7 mph 19.6 mph N/A   Clear
10:52 AM 75.9 °F 64.0 °F 67% 30.05 in 10.0 mi WSW 11.5 mph - N/A   Mostly Cloudy
11:52 AM 75.0 °F 64.9 °F 71% 30.06 in 10.0 mi WSW 10.4 mph - 0.00 in   Mostly Cloudy
12:52 PM 73.9 °F 66.0 °F 76% 30.06 in 10.0 mi SW 6.9 mph - N/A   Overcast
1:02 PM 73.9 °F 66.0 °F 76% 30.17 in 10.0 mi SW 10.4 mph - 0.00 in Rain Light Rain
1:48 PM 69.8 °F 66.2 °F 88% 30.18 in 2.5 mi WSW 10.4 mph 27.6 mph 0.04 in Rain Heavy Rain
1:52 PM 70.0 °F 66.0 °F 87% 30.08 in 2.0 mi WSW 16.1 mph 27.6 mph 0.06 in Rain Rain
2:06 PM 70.0 °F 66.0 °F 87% 30.17 in 5.0 mi WSW 11.5 mph - 0.03 in Rain Light Rain
2:52 PM 72.0 °F 66.9 °F 84% 30.04 in 10.0 mi WSW 9.2 mph - 0.05 in   Overcast
3:27 PM 75.9 °F 68.0 °F 76% 30.13 in 10.0 mi WSW 12.7 mph - N/A   Mostly Cloudy
3:52 PM 75.9 °F 66.0 °F 71% 30.01 in 10.0 mi WSW 12.7 mph 23.0 mph N/A   Mostly Cloudy
4:09 PM 75.9 °F 66.0 °F 71% 30.11 in 10.0 mi WSW 15.0 mph 24.2 mph N/A   Mostly Cloudy
4:52 PM 75.9 °F 66.0 °F 71% 30.00 in 10.0 mi WSW 17.3 mph 25.3 mph N/A   Overcast
5:52 PM 73.9 °F 64.9 °F 73% 29.99 in 10.0 mi WSW 11.5 mph 21.9 mph N/A   Overcast
6:52 PM 75.0 °F 64.9 °F 71% 29.98 in 10.0 mi WSW 10.4 mph - N/A   Mostly Cloudy
7:14 PM 73.9 °F 64.9 °F 73% 30.09 in 10.0 mi WSW 12.7 mph - N/A   Mostly Cloudy
7:52 PM 73.0 °F 64.9 °F 76% 29.98 in 10.0 mi West 5.8 mph - N/A   Mostly Cloudy
8:52 PM 72.0 °F 64.9 °F 78% 29.99 in 10.0 mi West 9.2 mph - N/A   Overcast
9:52 PM 71.1 °F 66.0 °F 84% 29.99 in 10.0 mi West 8.1 mph - N/A   Mostly Cloudy
10:08 PM 71.1 °F 66.0 °F 84% 30.11 in 10.0 mi West 9.2 mph - N/A   Overcast
10:30 PM 71.1 °F 66.0 °F 84% 30.11 in 10.0 mi West 9.2 mph - N/A   Overcast
10:52 PM 71.1 °F 66.0 °F 84% 29.99 in 10.0 mi West 9.2 mph - N/A   Overcast
11:52 PM 69.1 °F 66.0 °F 90% 30.00 in 10.0 mi WSW 9.2 mph - N/A   Mostly Cloudy